Погода в Намангане

Погода в Намангане : погода сейчас, прогноз погоды и архив. Всё, что Вы хотите узнать о погоде в Намангане!

Хотите узнать прогноз погоды в Намангане? Тогда Вам сюда: Погода в Намангане

Поиск расширенной информации на нашем сайте:

Другие новости

Новости СМИ2

Главная страница сайта

Новости сайта

03.07.2017

Напоминаем, что на нашем специализированном сайте Метеоцентр.Азия вы можете получить высокодетализированные автоматические прогнозы погоды по пунктам России, СНГ и мира в авиационном формате (включающие направление и скорость ветра, видимость, явления погоды, количество и форму облачности, нижнюю и верхнюю границу облачности).


Погода в Намангане - сегодня

Время (UTC), дата Ветер
(°,м/с) 
Видим.   Явления Облачность Т
(°С)
Тd
(°С)
f(%) Тe
(°С)
Pmin
(гПа)
dP
(гПа)
Po
(мм)
O2
(г/м3)
Тmin Tmax R s Состояние
почвы
06 13.01.18 230 (ЮЗ) 2000 м  дымка{дождь}  10/0 средняя 
[As op]
+4.8 +2.6 86 +3  1023.2    724  286  +2    0.1     
09 13.01.18 210 (ЮЗ) 2000 м  дымка  10/10 1500 м 
[Sc]
+3.9 +1.6 85 +3  1022.5  -1.8  724  287           
12 13.01.18 350 (С) 2000 м  слаб. дождь  10/10 1000 м 
[Ns]
+3.5 +1.4 86 +3  1023.8  1.1  724  288    -0.5       
15 13.01.18 020 (С) 2000 м  в посл. час дождь  10/10 1000 м 
[Ns]
+3.7 +1.7 87 +3  1025.9  2.1  726  288    +5.4       
18 13.01.18 350 (С) 4000 м  дымка{дождь}  10/5 1500 м средняя 
[Sc|Ac As]
+3.5 +0.6 81 +3  1025.7  -0.3  726  289    +5.4     
00 14.01.18 050 (СВ) 10 км    9/4 1500 м средняя 
[Sc|Ac lent]
+3 -0.5 78 +4  1024.6  -0.3  725  289           
03 14.01.18 310 (СЗ) 4000 м  дымка  10/4 1500 м средняя 
[Sc|Ac As]
+2 -0.5 83 +1  1026.3  1.4  726  290           
06 14.01.18 110 (В) 0500 м  туман  10/0 средняя 
[As op]
+2.8 +0.7 86 +1  1028.4  2.2  728  290  +1.6         
09 14.01.18 100 (В) 1000 м  дымка{туман}  10/10 100 м 
[St]
+4 +1.7 85 +4  1027.7  -0.5  727  288           
12 14.01.18 090 (В) 2000 м  дымка{туман}  9/0 средняя 
[Ac As]
+4.4 +1.9 84 +4  1027.5  -0.1  727  288           
15 14.01.18 340 (С) 1000 м  в посл. час туман  10/0 средняя 
[As op]
+2.5 +0.9 89 +2  1027.2  -0.7  727  290    +4.6       
18 14.01.18 280 (З) 2000 м    10/0 средняя 
[As op]
+2.3 +1 91 +2  1026.9  -0.3  726  290    +4.6       
21 14.01.18 080 (В) 1000 м  дымка  10/0 средняя 
[As op]
+1.7 +0.3 90 +2  1026  -0.9  726  291           
00 15.01.18 280 (З) 0200 м  туман  ?/?  
+0.4 -0.2 96 +1  1026.2  -0.1  726  292           
03 15.01.18 090 (В) 0200 м  туман  ?/?  
+0.8 +0.3 96 -1  1026.1  726  291           
06 15.01.18 340 (С) 0500 м  туман  10/10 100 м 
[Ns]
+1.5 +0.7 94 +2  1027.1  726  291  -0.5         
09 15.01.18 тихо ()   2000 м  дымка{туман}  10/10 100 м 
[Ns]
+2.4 +1.6 94 +2  1024.5  -2.2  725  289           
12 15.01.18 260 (З) 2000 м  дымка{туман}  10/10 200 м 
[Ns]
+2 +1.2 94 +1  1024.6  725  290           
15 15.01.18 250 (З) 2000 м  дымка  10/10 300 м 
[Ns]
+2.6 +0.2 84 +2  1023.8  -0.7  724  289    +3       
18 15.01.18 250 (З) 2000 м  дымка  10/10 300 м 
[Ns]
+2.2 -0.6 82 +2  1022.7  -1  724  289    +3       
21 15.01.18 320 (СЗ) 2000 м  дымка  10/10 600 м 
[Sc]
+2 -0.8 82 +1  1021.7  -1.1  723  289           
00 16.01.18 240 (ЮЗ) 2000 м  дымка  10/10 300 м 
[Ns]
+2.2 +0.3 87 +1  1022.3  0.7  723  289           
03 16.01.18 250 (З) 2000 м  дымка  10/10 100 м 
[Ns]
+1.5 +0.1 90 1024  1.4  724  290           
06 16.01.18 210 (ЮЗ) 2000 м  дымка  10/10 100 м 
[Ns]
+2 +0.1 87 +1  1025.6  1.6  725  290  +1         
09 16.01.18 240 (ЮЗ) 2000 м  дымка  10/10 200 м 
[Ns]
+1.8 -0.1 87 1024.2  -1.3  725  290           
Время (UTC), дата Ветер
(°,м/с) 
Видим.   Явления Облачность Т
(°С)
Тd
(°С)
f(%) Тe
(°С)
Pmin
(гПа)
dP
(гПа)
Po
(мм)
O2
(г/м3)
Тmin Tmax R s Состояние
почвы

Для получения пояснительной информации подведите курсор к названию столбца.

ПОГОДА в Намангане - архив

Всё, что Вы хотите узнать о погоде в Намангане - удобно и подробно!

Выберите нужную дату (начиная с 1 января 2015* года) и нажмите кнопку "Найти".
Будут отображены архивные сводки погоды по пункту Наманган, начиная с указанной даты.


Отображать данные в формате CSV (для использования в таблицах Excel)


Внимание! Наш архив погоды предназначен исключительно для личного некоммерческого использования в познавательных целях. Если Вам необходимы официальные справки о состоянии погоды (для производственных, юридических, коммерческих и т.п. целей), обращайтесь в органы Росгидромета.

*Примечание: данная дата относится к архиву по метеостанциям СССР (Россия, СНГ, Балтия).
Архив по метеостанциям Зарубежной Европы и Азии (кроме Китая) хранится 10 дней, по другим регионам земного шара (Китай, Африка, Америка, Австралия, Океания) - 1 день.

Наманган - район местоположения метеостанции


Название, широта, долгота, высота метеостанции:
Наманган 41°ш. 71.6°д. 474 м над ур. моря [Узбекистан]

Дополнительная информация

В oтличие oт бoльшинства пoгoдных сайтoв мы публикуем пoдрoбную метеoинфoрмацию в детальнoм прoфессиoнальнoм фoрмате.

Характеристики температуры и влажнoсти вoздуха измеряются на высoте 2 м в тени вдали oт зданий и деревьев.
Скoрoсть ветра измеряется на высoте 10 м (на урoвне рoста челoвека скoрoсть ветра ниже в 1.5-2 раза). Если метеoстанция нахoдится в гoрoде или в лесу, тo скoрoсть ветра занижена на 2-4 м/с пo сравнению с oткрытым местoм. Скoрoсть ветра над акватoриями крупных рек и oзёр, а также на вершинах хoлмoв на 2-5 м/с выше, чем в oбычных услoвиях.
Атмoсфернoе давление в разных тoчках местнoсти мoжет значительнo oтличаться oт давления на метеoстанции, в зависимoсти oт услoвий рельефа (при пoдъёме на 10 м давление пoнижается примернo на 1 мм рт.ст.).